Central Park, NY

10:46 AM EDT on October 21, 2017 (GMT -0400)
Central Park

Weather History for KNYC - May, 2013

Change the Weather History Date:

Sunday, May 26, 2013

  Actual Average Record
Temperature  
Mean Temperature 57 °F 65 °F  
Max Temperature 66 °F 74 °F 95 °F (1880)
Min Temperature 48 °F 57 °F 42 °F (1967)
Degree Days  
Heating Degree Days 8 3  
Month to date heating degree days 132 127  
Since 1 July heating degree days 4622 4720  
Cooling Degree Days 0 3  
Month to date cooling degree days 38 41  
Year to date cooling degree days 40 53  
Growing Degree Days 7 (Base 50)    
Moisture  
Dew Point 35 °F    
Average Humidity 48    
Maximum Humidity 66    
Minimum Humidity 30    
Precipitation  
Precipitation 0.00 in 0.15 in 1.28 in (2003)
Month to date precipitation 7.48 3.45  
Year to date precipitation 18.70 19.05  
Snow  
Snow 0.00 in 0.00 in 0.00 in (2002)
Month to date snowfall 0.0 0.0  
Since 1 July snowfall 26.1 25.8  
Snow Depth 0.00 in    
Sea Level Pressure  
Sea Level Pressure 30.04 in    
Wind  
Wind Speed 8 mph (WNW)    
Max Wind Speed 20 mph    
Max Gust Speed 29 mph    
Visibility 10 miles    
Events      
T = Trace of Precipitation, MM = Missing Value Source: NWS Daily Summary

Daily Weather History Graph

Daily Weather History Graph

Search for Another Location

Airport or City:

Trip Planner

Search our weather history database for the weather conditions in past years. The results will help you decide how hot, cold, wet, or windy it might be!

Date:

Astronomy

May. 26, 2013 Rise Set
Actual Time 5:29 AM EDT 8:16 PM EDT
Civil Twilight 4:57 AM EDT 8:48 PM EDT
Nautical Twilight 4:17 AM EDT 9:29 PM EDT
Astronomical Twilight 3:31 AM EDT 10:15 PM EDT
Moon 10:01 PM EDT (5/26) 6:56 AM EDT (5/26)
Length of Visible Light 15h 51m
Length of Day
14h 46m
Waning Gibbous, 97% of the Moon is Illuminated
May 26
Waning Gibbous
May 31
Last Quarter
Jun 8
New
Jun 16
First Quarter
Jun 23
Full

Hourly Weather History & Observations

Time (EDT) Temp. Dew Point Humidity Pressure Visibility Wind Dir Wind Speed Gust Speed Precip Events Conditions
12:51 AM 48.9 °F 36.0 °F 61% 29.98 in 10.0 mi WNW 10.4 mph 26.5 mph N/A   Mostly Cloudy
1:51 AM 48.0 °F 36.0 °F 63% 29.97 in 10.0 mi WNW 10.4 mph 21.9 mph N/A   Partly Cloudy
2:51 AM 48.0 °F 36.0 °F 63% 29.96 in 10.0 mi Variable 6.9 mph 20.7 mph N/A   Partly Cloudy
3:51 AM 48.0 °F 36.0 °F 63% 29.96 in 10.0 mi Variable 6.9 mph 19.6 mph N/A   Clear
4:51 AM 48.0 °F 37.0 °F 66% 29.98 in 10.0 mi West 8.1 mph 18.4 mph N/A   Clear
5:51 AM 48.9 °F 36.0 °F 61% 30.00 in 10.0 mi West 9.2 mph 26.5 mph N/A   Clear
6:51 AM 48.9 °F 37.9 °F 66% 30.01 in 10.0 mi West 9.2 mph 16.1 mph N/A   Clear
7:51 AM 50.0 °F 37.9 °F 63% 30.01 in 10.0 mi West 13.8 mph 25.3 mph N/A   Clear
8:51 AM 53.1 °F 37.0 °F 55% 30.02 in 10.0 mi WNW 11.5 mph 20.7 mph N/A   Clear
9:51 AM 55.0 °F 37.0 °F 51% 30.02 in 10.0 mi Variable 6.9 mph 20.7 mph N/A   Clear
10:51 AM 57.9 °F 36.0 °F 44% 30.02 in 10.0 mi NW 15.0 mph 26.5 mph N/A   Mostly Cloudy
11:51 AM 61.0 °F 36.0 °F 39% 30.02 in 10.0 mi NW 11.5 mph 21.9 mph N/A   Scattered Clouds
12:51 PM 62.1 °F 35.1 °F 37% 30.03 in 10.0 mi NW 8.1 mph 23.0 mph N/A   Partly Cloudy
1:51 PM 64.9 °F 34.0 °F 32% 30.02 in 10.0 mi NW 8.1 mph 25.3 mph N/A   Partly Cloudy
2:51 PM 64.0 °F 32.0 °F 30% 30.02 in 10.0 mi West 10.4 mph 17.3 mph N/A   Overcast
3:51 PM 66.0 °F 36.0 °F 33% 30.02 in 10.0 mi North - - N/A   Overcast
4:51 PM 64.9 °F 33.1 °F 31% 30.04 in 10.0 mi NW 13.8 mph 21.9 mph N/A   Mostly Cloudy
5:51 PM 64.0 °F 33.1 °F 31% 30.05 in 10.0 mi NW 8.1 mph 20.7 mph N/A   Clear
6:51 PM 64.0 °F 33.1 °F 31% 30.08 in 10.0 mi NW 6.9 mph - N/A   Clear
7:51 PM 63.0 °F 30.9 °F 30% 30.11 in 10.0 mi NNW 11.5 mph 17.3 mph N/A   Clear
8:51 PM 61.0 °F 33.1 °F 35% 30.13 in 10.0 mi Variable 4.6 mph - N/A   Clear
9:51 PM 59.0 °F 33.1 °F 38% 30.17 in 10.0 mi Variable 3.5 mph - N/A   Clear
10:51 PM 57.0 °F 34.0 °F 42% 30.19 in 10.0 mi NW 3.5 mph - N/A   Clear
11:51 PM 55.0 °F 33.1 °F 43% 30.20 in 10.0 mi Calm Calm - N/A   Clear